When you browse on this site, cookies collect data to enhance your experience and personalize the content and advertising you see.
Visit our Privacy Policy to learn more. By continuing to use the site, you agree to this use of cookies and data.
  • In Slovakia
  • List of Countries
  • For 7 days
  • Water Temperature
  • Weather Map
  • Weather Widgets
  • user-avatar
    Login

    Hourly Weather Ghazni

    Today, 22 September, Sunday

    Time Temperature Precipitation Wind Pressure Humidity
    00:00 +19°C° 0 mm 1 mps 588 mmHg 18%
    01:00 +18°C° 0 mm 1 mps 587 mmHg 20%
    02:00 +16°C° 0 mm 1 mps 587 mmHg 21%
    03:00 +15°C° 0 mm 1 mps 587 mmHg 25%
    04:00 +13°C° 0 mm 0 mps 586 mmHg 28%
    05:00 +12°C° 0 mm 0 mps 586 mmHg 31%
    06:00 +14°C° 0 mm 0 mps 588 mmHg 29%
    07:00 +16°C° 0 mm 0 mps 589 mmHg 26%
    08:00 +18°C° 0 mm 0 mps 590 mmHg 24%
    09:00 +22°C° 0 mm 1 mps 591 mmHg 21%
    10:00 +23°C° 0 mm 1 mps 591 mmHg 18%
    11:00 +25°C° 0 mm 1 mps 592 mmHg 13%
    12:00 +26°C° 0 mm 1 mps 592 mmHg 11%
    13:00 +27°C° 0 mm 1 mps 592 mmHg 10%
    14:00 +28°C° 0 mm 1 mps 592 mmHg 8%
    15:00 +28°C° 0 mm 1 mps 591 mmHg 8%
    16:00 +28°C° 0 mm 2 mps 591 mmHg 8%
    17:00 +29°C° 0 mm 2 mps 591 mmHg 7%
    18:00 +26°C° 0 mm 1 mps 591 mmHg 9%
    19:00 +24°C° 0 mm 1 mps 590 mmHg 10%
    20:00 +22°C° 0 mm 1 mps 590 mmHg 12%
    21:00 +21°C° 0 mm 1 mps 590 mmHg 14%
    22:00 +20°C° 0 mm 1 mps 590 mmHg 15%
    23:00 +20°C° 0 mm 1 mps 590 mmHg 17%

    Tomorrow, 23 September, Monday

    Time Temperature Precipitation Wind Pressure Humidity
    00:00 +19°C° 0 mm 1 mps 589 mmHg 21%
    01:00 +18°C° 0 mm 1 mps 589 mmHg 25%
    02:00 +16°C° 0 mm 1 mps 589 mmHg 29%
    03:00 +16°C° 0 mm 1 mps 589 mmHg 29%
    04:00 +15°C° 0 mm 1 mps 589 mmHg 29%
    05:00 +15°C° 0 mm 1 mps 588 mmHg 29%
    06:00 +16°C° 0 mm 1 mps 590 mmHg 26%
    07:00 +19°C° 0 mm 1 mps 591 mmHg 23%
    08:00 +21°C° 0 mm 1 mps 592 mmHg 21%
    09:00 +22°C° 0 mm 1 mps 592 mmHg 19%
    10:00 +24°C° 0 mm 1 mps 593 mmHg 17%
    11:00 +26°C° 0 mm 1 mps 593 mmHg 15%
    12:00 +27°C° 0 mm 1 mps 593 mmHg 13%
    13:00 +28°C° 0 mm 2 mps 592 mmHg 12%
    14:00 +29°C° 0 mm 2 mps 592 mmHg 10%
    15:00 +29°C° 0 mm 2 mps 592 mmHg 10%
    16:00 +29°C° 0 mm 2 mps 591 mmHg 10%
    17:00 +29°C° 0 mm 2 mps 591 mmHg 10%
    18:00 +27°C° 0 mm 1 mps 591 mmHg 12%
    19:00 +25°C° 0 mm 1 mps 590 mmHg 14%
    20:00 +23°C° 0 mm 1 mps 590 mmHg 16%
    21:00 +22°C° 0 mm 1 mps 590 mmHg 19%
    22:00 +21°C° 0 mm 1 mps 590 mmHg 21%
    23:00 +20°C° 0 mm 1 mps 590 mmHg 23%

    Day after tomorrow, 24 September, Tuesday

    Time Temperature Precipitation Wind Pressure Humidity
    00:00 +19°C° 0 mm 1 mps 589 mmHg 27%
    01:00 +18°C° 0 mm 1 mps 589 mmHg 31%
    02:00 +15°C° 0 mm 0 mps 588 mmHg 34%
    03:00 +15°C° 0 mm 0 mps 588 mmHg 36%
    04:00 +14°C° 0 mm 0 mps 588 mmHg 37%
    05:00 +14°C° 0 mm 0 mps 588 mmHg 38%
    06:00 +16°C° 0 mm 0 mps 589 mmHg 35%
    07:00 +17°C° 0 mm 0 mps 590 mmHg 31%
    08:00 +19°C° 0 mm 0 mps 591 mmHg 27%
    09:00 +23°C° 0 mm 1 mps 592 mmHg 25%
    10:00 +24°C° 0 mm 1 mps 592 mmHg 23%
    11:00 +26°C° 0 mm 1 mps 592 mmHg 20%
    12:00 +27°C° 0 mm 1 mps 592 mmHg 18%
    13:00 +28°C° 0 mm 1 mps 592 mmHg 15%
    14:00 +29°C° 0 mm 2 mps 592 mmHg 13%
    15:00 +29°C° 0 mm 2 mps 592 mmHg 12%
    16:00 +29°C° 0 mm 2 mps 592 mmHg 12%
    17:00 +30°C° 0 mm 2 mps 591 mmHg 11%
    18:00 +28°C° 0 mm 2 mps 591 mmHg 13%
    19:00 +26°C° 0 mm 2 mps 591 mmHg 15%
    20:00 +23°C° 0 mm 2 mps 590 mmHg 17%
    21:00 +21°C° 0 mm 2 mps 590 mmHg 20%
    22:00 +21°C° 0 mm 1 mps 590 mmHg 24%
    23:00 +20°C° 0 mm 1 mps 590 mmHg 27%

    25 September, Wednesday

    Time Temperature Precipitation Wind Pressure Humidity
    00:00 +20°C° 0 mm 1 mps 590 mmHg 29%
    01:00 +19°C° 0 mm 1 mps 589 mmHg 31%
    02:00 +18°C° 0 mm 1 mps 589 mmHg 34%
    03:00 +18°C° 0 mm 1 mps 589 mmHg 36%
    04:00 +15°C° 0 mm 0 mps 588 mmHg 38%
    05:00 +14°C° 0 mm 0 mps 588 mmHg 41%
    06:00 +16°C° 0 mm 0 mps 590 mmHg 37%
    07:00 +18°C° 0 mm 0 mps 591 mmHg 34%
    08:00 +19°C° 0 mm 0 mps 592 mmHg 31%
    09:00 +23°C° 0 mm 1 mps 593 mmHg 28%
    10:00 +24°C° 0 mm 1 mps 593 mmHg 26%
    11:00 +26°C° 0 mm 1 mps 594 mmHg 24%
    12:00 +27°C° 0 mm 2 mps 594 mmHg 22%
    13:00 +28°C° 0 mm 2 mps 593 mmHg 19%
    14:00 +29°C° 0 mm 2 mps 593 mmHg 17%
    15:00 +29°C° 0 mm 3 mps 593 mmHg 16%
    16:00 +29°C° 0 mm 3 mps 593 mmHg 15%
    17:00 +30°C° 0 mm 4 mps 593 mmHg 14%
    18:00 +28°C° 0 mm 4 mps 593 mmHg 17%
    19:00 +26°C° 0 mm 3 mps 592 mmHg 20%
    20:00 +24°C° 0 mm 3 mps 592 mmHg 23%
    21:00 +23°C° 0 mm 2 mps 592 mmHg 30%
    22:00 +21°C° 0 mm 2 mps 591 mmHg 37%
    23:00 +20°C° 0 mm 1 mps 591 mmHg 44%

    26 September, Thursday

    Time Temperature Precipitation Wind Pressure Humidity
    00:00 +20°C° 0 mm 1 mps 591 mmHg 47%
    01:00 +20°C° 0 mm 1 mps 591 mmHg 51%
    02:00 +18°C° 0 mm 2 mps 591 mmHg 54%
    03:00 +19°C° 0 mm 1 mps 591 mmHg 55%
    04:00 +18°C° 0 mm 1 mps 590 mmHg 56%
    05:00 +18°C° 0 mm 1 mps 590 mmHg 58%
    06:00 +19°C° 0 mm 1 mps 591 mmHg 51%
    07:00 +20°C° 0 mm 1 mps 592 mmHg 44%
    08:00 +22°C° 0 mm 1 mps 593 mmHg 37%
    09:00 +23°C° 0 mm 1 mps 593 mmHg 34%
    10:00 +25°C° 0 mm 1 mps 594 mmHg 31%
    11:00 +26°C° 0 mm 1 mps 594 mmHg 28%
    12:00 +27°C° 0 mm 1 mps 594 mmHg 25%
    13:00 +28°C° 0 mm 2 mps 594 mmHg 22%
    14:00 +29°C° 0 mm 2 mps 594 mmHg 18%
    15:00 +30°C° 0 mm 2 mps 593 mmHg 17%
    16:00 +30°C° 0 mm 3 mps 593 mmHg 16%
    17:00 +30°C° 0 mm 3 mps 593 mmHg 14%
    18:00 +28°C° 0 mm 3 mps 592 mmHg 17%
    19:00 +26°C° 0 mm 3 mps 592 mmHg 19%
    20:00 +25°C° 0 mm 3 mps 592 mmHg 21%
    21:00 +22°C° 0 mm 3 mps 592 mmHg 27%
    22:00 +21°C° 0 mm 2 mps 591 mmHg 33%
    23:00 +20°C° 0 mm 2 mps 591 mmHg 39%

    27 September, Friday

    Time Temperature Precipitation Wind Pressure Humidity
    00:00 +20°C° 0 mm 1 mps 591 mmHg 43%
    01:00 +20°C° 0 mm 1 mps 590 mmHg 47%
    02:00 +19°C° 0 mm 1 mps 590 mmHg 52%
    03:00 +19°C° 0 mm 1 mps 590 mmHg 52%
    04:00 +18°C° 0 mm 1 mps 590 mmHg 53%
    05:00 +18°C° 0 mm 1 mps 589 mmHg 54%
    06:00 +19°C° 0 mm 1 mps 590 mmHg 47%
    07:00 +20°C° 0 mm 1 mps 591 mmHg 41%
    08:00 +22°C° 0 mm 1 mps 592 mmHg 34%
    09:00 +23°C° 0 mm 1 mps 592 mmHg 31%
    10:00 +25°C° 0 mm 1 mps 593 mmHg 27%
    11:00 +26°C° 0 mm 1 mps 593 mmHg 24%
    12:00 +28°C° 0 mm 1 mps 593 mmHg 20%
    13:00 +29°C° 0 mm 2 mps 593 mmHg 16%
    14:00 +30°C° 0 mm 2 mps 592 mmHg 12%
    15:00 +30°C° 0 mm 2 mps 592 mmHg 11%
    16:00 +30°C° 0 mm 3 mps 592 mmHg 11%
    17:00 +30°C° 0 mm 3 mps 592 mmHg 11%
    18:00 +28°C° 0 mm 3 mps 591 mmHg 11%
    19:00 +26°C° 0 mm 4 mps 591 mmHg 12%
    20:00 +23°C° 0 mm 4 mps 591 mmHg 12%
    21:00 +22°C° 0 mm 4 mps 591 mmHg 13%
    22:00 +21°C° 0 mm 4 mps 591 mmHg 13%
    23:00 +21°C° 0 mm 4 mps 591 mmHg 14%
    Show more